Location: Audinghen
(50.8518°N, 1.6129°E)
Time: 09:13:00
(UTC+00:00)

Meteor 2-5 Rocket - Pass Details

Date: 07 August 2020
Orbit: 832 x 912 km, 81.2° (Epoch: 20 September)

Event Time Altitude Azimuth Distance (km) Brightness Sun altitude
Rises 01:59:38 0° 346° (NNW) 3,464 7.6 -17.8°
Reaches altitude 10° 02:02:06 10° 345° (NNW) 2,510 6.8 -17.6°
Maximum altitude 02:07:47 77° 261° (W) 875 3.6 -17.2°
Enters shadow 02:11:39 21° 178° (S) 1,824 5.0 -16.8°
